User: anonymous   Login
Location: Unspecified
(0.0000°N, 0.0000°E)
Time: 07:24:38
(UTC+02:00)
Language:

GPS 2-12 Rocket1 - Orbit

View from above orbital plane
View from above orbital plane
View from above satellite
View from above satellite

Ground track
Ground track

The orbit data is extracted from the following two-line orbital elements,

1 21891U 92009B   15215.21656026  .00001157  00000-0  90609-4 0  9995
2 21891 019.9958 209.5859 0047639 281.6906 077.8170 14.82210615264623
Epoch (UTC): 03 August 2015 05:11:50
Eccentricity: 0.0047639
inclination: 19.9958°
perigee height: 589 km
apogee height: 656 km
right ascension of ascending node: 209.5859°
argument of perigee: 281.6906°
revolutions per day: 14.82210615
mean anomaly at epoch: 77.8170°
orbit number at epoch: 26462

The dashed part of the orbit path shows where the satellite is in the earth's shadow,  

DLR